Year,Month,Day,Hour,Minute,Value (Times are PST for temperature in C)
2012,08,13,00,00,18.40
2012,08,13,00,01,18.30
2012,08,13,00,02,18.30
2012,08,13,00,03,18.20
2012,08,13,00,04,18.20
2012,08,13,00,05,18.10
2012,08,13,00,06,18.10
2012,08,13,00,07,18.10
2012,08,13,00,08,18.00
2012,08,13,00,09,17.90
2012,08,13,00,10,17.90
2012,08,13,00,11,17.90
2012,08,13,00,12,17.90
2012,08,13,00,13,17.90
2012,08,13,00,14,17.90
2012,08,13,00,15,17.90
2012,08,13,00,16,17.90
2012,08,13,00,17,18.00
2012,08,13,00,18,18.00
2012,08,13,00,19,18.10
2012,08,13,00,20,18.10
2012,08,13,00,21,18.10
2012,08,13,00,22,18.10
2012,08,13,00,23,18.10
2012,08,13,00,24,18.10
2012,08,13,00,25,18.10
2012,08,13,00,26,18.10
2012,08,13,00,27,18.10
2012,08,13,00,28,18.10
2012,08,13,00,29,18.10
2012,08,13,00,30,18.10
2012,08,13,00,31,18.00
2012,08,13,00,32,18.00
2012,08,13,00,33,17.90
2012,08,13,00,34,17.90
2012,08,13,00,35,17.90
2012,08,13,00,36,17.80
2012,08,13,00,37,17.80
2012,08,13,00,38,17.70
2012,08,13,00,39,17.70
2012,08,13,00,40,17.60
2012,08,13,00,41,17.60
2012,08,13,00,42,17.50
2012,08,13,00,43,17.40
2012,08,13,00,44,17.40
2012,08,13,00,45,17.40
2012,08,13,00,46,17.30
2012,08,13,00,47,17.30
2012,08,13,00,48,17.30
2012,08,13,00,49,17.30
2012,08,13,00,50,17.30
2012,08,13,00,51,17.30
2012,08,13,00,52,17.20
2012,08,13,00,53,17.20
2012,08,13,00,54,17.20
2012,08,13,00,55,17.20
2012,08,13,00,56,17.10
2012,08,13,00,57,17.10
2012,08,13,00,58,17.00
2012,08,13,00,59,17.00
2012,08,13,01,00,16.90
2012,08,13,01,01,16.90
2012,08,13,01,02,16.80
2012,08,13,01,03,16.80
2012,08,13,01,04,16.70
2012,08,13,01,05,16.70
2012,08,13,01,06,16.70
2012,08,13,01,07,16.60
2012,08,13,01,08,16.60
2012,08,13,01,09,16.60
2012,08,13,01,10,16.60
2012,08,13,01,11,16.50
2012,08,13,01,12,16.50
2012,08,13,01,13,16.40
2012,08,13,01,14,16.40
2012,08,13,01,15,16.40
2012,08,13,01,16,16.30
2012,08,13,01,17,16.30
2012,08,13,01,18,16.30
2012,08,13,01,19,16.30
2012,08,13,01,20,16.20
2012,08,13,01,21,16.20
2012,08,13,01,22,16.20
2012,08,13,01,23,16.10
2012,08,13,01,24,16.10
2012,08,13,01,25,16.10
2012,08,13,01,26,16.00
2012,08,13,01,27,16.00
2012,08,13,01,28,16.00
2012,08,13,01,29,15.90
2012,08,13,01,30,16.00
2012,08,13,01,31,16.10
2012,08,13,01,32,16.20
2012,08,13,01,33,16.30
2012,08,13,01,34,16.30
2012,08,13,01,35,16.40
2012,08,13,01,36,16.50
2012,08,13,01,37,16.50
2012,08,13,01,38,16.60
2012,08,13,01,39,16.60
2012,08,13,01,40,16.60
2012,08,13,01,41,16.70
2012,08,13,01,42,16.70
2012,08,13,01,43,16.70
2012,08,13,01,44,16.60
2012,08,13,01,45,16.60
2012,08,13,01,46,16.50
2012,08,13,01,47,16.50
2012,08,13,01,48,16.40
2012,08,13,01,49,16.40
2012,08,13,01,50,16.40
2012,08,13,01,51,16.30
2012,08,13,01,52,16.30
2012,08,13,01,53,16.20
2012,08,13,01,54,16.20
2012,08,13,01,55,16.20
2012,08,13,01,56,16.10
2012,08,13,01,57,16.10
2012,08,13,01,58,16.10
2012,08,13,01,59,16.00
2012,08,13,02,00,16.00
2012,08,13,02,01,16.00
2012,08,13,02,02,15.90
2012,08,13,02,03,15.90
2012,08,13,02,04,15.90
2012,08,13,02,05,15.90
2012,08,13,02,06,15.80
2012,08,13,02,07,15.80
2012,08,13,02,08,15.80
2012,08,13,02,09,15.80
2012,08,13,02,10,15.80
2012,08,13,02,11,15.80
2012,08,13,02,12,15.80
2012,08,13,02,13,15.80
2012,08,13,02,14,15.80
2012,08,13,02,15,15.80
2012,08,13,02,16,15.80
2012,08,13,02,17,15.80
2012,08,13,02,18,15.80
2012,08,13,02,19,15.80
2012,08,13,02,20,15.80
2012,08,13,02,21,15.70
2012,08,13,02,22,15.70
2012,08,13,02,23,15.70
2012,08,13,02,24,15.60
2012,08,13,02,25,15.60
2012,08,13,02,26,15.60
2012,08,13,02,27,15.50
2012,08,13,02,28,15.50
2012,08,13,02,29,15.40
2012,08,13,02,30,15.40
2012,08,13,02,31,15.40
2012,08,13,02,32,15.30
2012,08,13,02,33,15.30
2012,08,13,02,34,15.30
2012,08,13,02,35,15.30
2012,08,13,02,36,15.30
2012,08,13,02,37,15.20
2012,08,13,02,38,15.20
2012,08,13,02,39,15.20
2012,08,13,02,40,15.20
2012,08,13,02,41,15.20
2012,08,13,02,42,15.10
2012,08,13,02,43,15.10
2012,08,13,02,44,15.00
2012,08,13,02,45,15.00
2012,08,13,02,46,15.00
2012,08,13,02,47,15.00
2012,08,13,02,48,15.00
2012,08,13,02,49,15.00
2012,08,13,02,50,15.00
2012,08,13,02,51,15.00
2012,08,13,02,52,15.00
2012,08,13,02,53,15.00
2012,08,13,02,54,15.00
2012,08,13,02,55,15.00
2012,08,13,02,56,15.00
2012,08,13,02,57,15.00
2012,08,13,02,58,15.00
2012,08,13,02,59,14.90
2012,08,13,03,00,14.90
2012,08,13,03,01,14.90
2012,08,13,03,02,14.80
2012,08,13,03,03,14.80
2012,08,13,03,04,14.80
2012,08,13,03,05,14.80
2012,08,13,03,06,14.80
2012,08,13,03,07,14.80
2012,08,13,03,08,14.80
2012,08,13,03,09,14.80
2012,08,13,03,10,14.80
2012,08,13,03,11,14.80
2012,08,13,03,12,14.80
2012,08,13,03,13,14.90
2012,08,13,03,14,14.90
2012,08,13,03,15,14.90
2012,08,13,03,16,14.90
2012,08,13,03,17,14.90
2012,08,13,03,18,14.90
2012,08,13,03,19,14.80
2012,08,13,03,20,14.90
2012,08,13,03,21,14.90
2012,08,13,03,22,14.90
2012,08,13,03,23,15.00
2012,08,13,03,24,15.00
2012,08,13,03,25,15.00
2012,08,13,03,26,15.00
2012,08,13,03,27,15.00
2012,08,13,03,28,15.00
2012,08,13,03,29,15.00
2012,08,13,03,30,15.10
2012,08,13,03,31,15.20
2012,08,13,03,32,15.30
2012,08,13,03,33,15.30
2012,08,13,03,34,15.30
2012,08,13,03,35,15.40
2012,08,13,03,36,15.40
2012,08,13,03,37,15.30
2012,08,13,03,38,15.30
2012,08,13,03,39,15.30
2012,08,13,03,40,15.30
2012,08,13,03,41,15.20
2012,08,13,03,42,15.20
2012,08,13,03,43,15.10
2012,08,13,03,44,15.00
2012,08,13,03,45,15.00
2012,08,13,03,46,15.00
2012,08,13,03,47,15.00
2012,08,13,03,48,15.00
2012,08,13,03,49,15.00
2012,08,13,03,50,15.00
2012,08,13,03,51,15.00
2012,08,13,03,52,15.00
2012,08,13,03,53,15.00
2012,08,13,03,54,14.90
2012,08,13,03,55,14.90
2012,08,13,03,56,14.90
2012,08,13,03,57,14.90
2012,08,13,03,58,14.90
2012,08,13,03,59,14.90
2012,08,13,04,00,14.90
2012,08,13,04,01,14.80
2012,08,13,04,02,14.80
2012,08,13,04,03,14.90
2012,08,13,04,04,14.90
2012,08,13,04,05,15.00
2012,08,13,04,06,15.00
2012,08,13,04,07,15.00
2012,08,13,04,08,15.00
2012,08,13,04,09,15.00
2012,08,13,04,10,15.00
2012,08,13,04,11,15.00
2012,08,13,04,12,15.00
2012,08,13,04,13,15.00
2012,08,13,04,14,15.00
2012,08,13,04,15,15.10
2012,08,13,04,16,15.10
2012,08,13,04,17,15.10
2012,08,13,04,18,15.20
2012,08,13,04,19,15.30
2012,08,13,04,20,15.40
2012,08,13,04,21,15.40
2012,08,13,04,22,15.50
2012,08,13,04,23,15.60
2012,08,13,04,24,15.60
2012,08,13,04,25,15.70
2012,08,13,04,26,15.70
2012,08,13,04,27,15.70
2012,08,13,04,28,15.60
2012,08,13,04,29,15.60
2012,08,13,04,30,15.60
2012,08,13,04,31,15.50
2012,08,13,04,32,15.40
2012,08,13,04,33,15.40
2012,08,13,04,34,15.30
2012,08,13,04,35,15.30
2012,08,13,04,36,15.20
2012,08,13,04,37,15.10
2012,08,13,04,38,15.00
2012,08,13,04,39,15.00
2012,08,13,04,40,15.00
2012,08,13,04,41,15.00
2012,08,13,04,42,15.00
2012,08,13,04,43,15.00
2012,08,13,04,44,15.00
2012,08,13,04,45,14.90
2012,08,13,04,46,14.80
2012,08,13,04,47,14.80
2012,08,13,04,48,14.80
2012,08,13,04,49,14.80
2012,08,13,04,50,14.70
2012,08,13,04,51,14.70
2012,08,13,04,52,14.70
2012,08,13,04,53,14.60
2012,08,13,04,54,14.60
2012,08,13,04,55,14.60
2012,08,13,04,56,14.60
2012,08,13,04,57,14.50
2012,08,13,04,58,14.50
2012,08,13,04,59,14.50
2012,08,13,05,00,14.40
2012,08,13,05,01,14.40
2012,08,13,05,02,14.40
2012,08,13,05,03,14.40
2012,08,13,05,04,14.30
2012,08,13,05,05,14.30
2012,08,13,05,06,14.30
2012,08,13,05,07,14.30
2012,08,13,05,08,14.20
2012,08,13,05,09,14.20
2012,08,13,05,10,14.20
2012,08,13,05,11,14.20
2012,08,13,05,12,14.20
2012,08,13,05,13,14.10
2012,08,13,05,14,14.10
2012,08,13,05,15,14.10
2012,08,13,05,16,14.10
2012,08,13,05,17,14.00
2012,08,13,05,18,14.00
2012,08,13,05,19,14.00
2012,08,13,05,20,14.00
2012,08,13,05,21,14.00
2012,08,13,05,22,13.90
2012,08,13,05,23,13.90
2012,08,13,05,24,13.90
2012,08,13,05,25,13.90
2012,08,13,05,26,13.90
2012,08,13,05,27,13.90
2012,08,13,05,28,13.90
2012,08,13,05,29,13.80
2012,08,13,05,30,13.80
2012,08,13,05,31,13.80
2012,08,13,05,32,13.80
2012,08,13,05,33,13.80
2012,08,13,05,34,13.80
2012,08,13,05,35,13.80
2012,08,13,05,36,13.80
2012,08,13,05,37,13.70
2012,08,13,05,38,13.70
2012,08,13,05,39,13.70
2012,08,13,05,40,13.70
2012,08,13,05,41,13.70
2012,08,13,05,42,13.70
2012,08,13,05,43,13.70
2012,08,13,05,44,13.70
2012,08,13,05,45,13.60
2012,08,13,05,46,13.60
2012,08,13,05,47,13.60
2012,08,13,05,48,13.60
2012,08,13,05,49,13.60
2012,08,13,05,50,13.60
2012,08,13,05,51,13.60
2012,08,13,05,52,13.60
2012,08,13,05,53,13.60
2012,08,13,05,54,13.60
2012,08,13,05,55,13.60
2012,08,13,05,56,13.60
2012,08,13,05,57,13.60
2012,08,13,05,58,13.60
2012,08,13,05,59,13.60
2012,08,13,06,00,13.70
2012,08,13,06,01,13.70
2012,08,13,06,02,13.70
2012,08,13,06,03,13.70
2012,08,13,06,04,13.70
2012,08,13,06,05,13.70
2012,08,13,06,06,13.80
2012,08,13,06,07,13.80
2012,08,13,06,08,13.80
2012,08,13,06,09,13.80
2012,08,13,06,10,13.80
2012,08,13,06,11,13.80
2012,08,13,06,12,13.80
2012,08,13,06,13,13.80
2012,08,13,06,14,13.80
2012,08,13,06,15,13.80
2012,08,13,06,16,13.80
2012,08,13,06,17,13.80
2012,08,13,06,18,13.80
2012,08,13,06,19,13.70
2012,08,13,06,20,13.70
2012,08,13,06,21,13.70
2012,08,13,06,22,13.70
2012,08,13,06,23,13.70
2012,08,13,06,24,13.70
2012,08,13,06,25,13.60
2012,08,13,06,26,13.60
2012,08,13,06,27,13.60
2012,08,13,06,28,13.60
2012,08,13,06,29,13.60
2012,08,13,06,30,13.60
2012,08,13,06,31,13.60
2012,08,13,06,32,13.60
2012,08,13,06,33,13.60
2012,08,13,06,34,13.60
2012,08,13,06,35,13.60
2012,08,13,06,36,13.60
2012,08,13,06,37,13.60
2012,08,13,06,38,13.60
2012,08,13,06,39,13.60
2012,08,13,06,40,13.60
2012,08,13,06,41,13.60
2012,08,13,06,42,13.60
2012,08,13,06,43,13.70
2012,08,13,06,44,13.70
2012,08,13,06,45,13.70
2012,08,13,06,46,13.80
2012,08,13,06,47,13.80
2012,08,13,06,48,13.90
2012,08,13,06,49,13.90
2012,08,13,06,50,14.00
2012,08,13,06,51,14.00
2012,08,13,06,52,14.10
2012,08,13,06,53,14.20
2012,08,13,06,54,14.30
2012,08,13,06,55,14.40
2012,08,13,06,56,14.50
2012,08,13,06,57,14.50
2012,08,13,06,58,14.60
2012,08,13,06,59,14.70
2012,08,13,07,00,14.80
2012,08,13,07,01,14.90
2012,08,13,07,02,15.00
2012,08,13,07,03,15.00
2012,08,13,07,04,15.00
2012,08,13,07,05,15.10
2012,08,13,07,06,15.20
2012,08,13,07,07,15.20
2012,08,13,07,08,15.30
2012,08,13,07,09,15.40
2012,08,13,07,10,15.40
2012,08,13,07,11,15.50
2012,08,13,07,12,15.50
2012,08,13,07,13,15.60
2012,08,13,07,14,15.60
2012,08,13,07,15,15.70
2012,08,13,07,16,15.70
2012,08,13,07,17,15.70
2012,08,13,07,18,15.80
2012,08,13,07,19,15.80
2012,08,13,07,20,15.80
2012,08,13,07,21,15.80
2012,08,13,07,22,15.90
2012,08,13,07,23,15.90
2012,08,13,07,24,15.90
2012,08,13,07,25,15.90
2012,08,13,07,26,16.00
2012,08,13,07,27,16.00
2012,08,13,07,28,16.00
2012,08,13,07,29,16.00
2012,08,13,07,30,16.10
2012,08,13,07,31,16.10
2012,08,13,07,32,16.10
2012,08,13,07,33,16.10
2012,08,13,07,34,16.20
2012,08,13,07,35,16.20
2012,08,13,07,36,16.20
2012,08,13,07,37,16.20
2012,08,13,07,38,16.30
2012,08,13,07,39,16.30
2012,08,13,07,40,16.30
2012,08,13,07,41,16.30
2012,08,13,07,42,16.40
2012,08,13,07,43,16.40
2012,08,13,07,44,16.40
2012,08,13,07,45,16.50
2012,08,13,07,46,16.50
2012,08,13,07,47,16.60
2012,08,13,07,48,16.60
2012,08,13,07,49,16.70
2012,08,13,07,50,16.70
2012,08,13,07,51,16.70
2012,08,13,07,52,16.80
2012,08,13,07,53,16.80
2012,08,13,07,54,16.80
2012,08,13,07,55,16.90
2012,08,13,07,56,16.90
2012,08,13,07,57,16.90
2012,08,13,07,58,16.90
2012,08,13,07,59,16.90
2012,08,13,08,00,16.90
2012,08,13,08,01,17.00
2012,08,13,08,02,17.00
2012,08,13,08,03,17.00
2012,08,13,08,04,17.00
2012,08,13,08,05,17.00
2012,08,13,08,06,17.10
2012,08,13,08,07,17.10
2012,08,13,08,08,17.10
2012,08,13,08,09,17.10
2012,08,13,08,10,17.10
2012,08,13,08,11,17.10
2012,08,13,08,12,17.10
2012,08,13,08,13,17.20
2012,08,13,08,14,17.20
2012,08,13,08,15,17.20
2012,08,13,08,16,17.30
2012,08,13,08,17,17.30
2012,08,13,08,18,17.30
2012,08,13,08,19,17.30
2012,08,13,08,20,17.30
2012,08,13,08,21,17.30
2012,08,13,08,22,17.30
2012,08,13,08,23,17.30
2012,08,13,08,24,17.30
2012,08,13,08,25,17.40
2012,08,13,08,26,17.40
2012,08,13,08,27,17.40
2012,08,13,08,28,17.40
2012,08,13,08,29,17.40
2012,08,13,08,30,17.40
2012,08,13,08,31,17.50
2012,08,13,08,32,17.50
2012,08,13,08,33,17.60
2012,08,13,08,34,17.60
2012,08,13,08,35,17.60
2012,08,13,08,36,17.70
2012,08,13,08,37,17.70
2012,08,13,08,38,17.70
2012,08,13,08,39,17.70
2012,08,13,08,40,17.60
2012,08,13,08,41,17.60
2012,08,13,08,42,17.50
2012,08,13,08,43,17.50
2012,08,13,08,44,17.50
2012,08,13,08,45,17.50
2012,08,13,08,46,17.50
2012,08,13,08,47,17.50
2012,08,13,08,48,17.60
2012,08,13,08,49,17.60
2012,08,13,08,50,17.60
2012,08,13,08,51,17.60
2012,08,13,08,52,17.60
2012,08,13,08,53,17.70
2012,08,13,08,54,17.70
2012,08,13,08,55,17.70
2012,08,13,08,56,17.70
2012,08,13,08,57,17.80
2012,08,13,08,58,17.80
2012,08,13,08,59,17.80
2012,08,13,09,00,17.80
2012,08,13,09,01,17.90
2012,08,13,09,02,17.90
2012,08,13,09,03,17.90
2012,08,13,09,04,17.90
2012,08,13,09,05,17.90
2012,08,13,09,06,17.90
2012,08,13,09,07,17.90
2012,08,13,09,08,17.90
2012,08,13,09,09,18.00
2012,08,13,09,10,18.00
2012,08,13,09,11,18.00
2012,08,13,09,12,18.10
2012,08,13,09,13,18.10
2012,08,13,09,14,18.10
2012,08,13,09,15,18.20
2012,08,13,09,16,18.20
2012,08,13,09,17,18.20
2012,08,13,09,18,18.20
2012,08,13,09,19,18.20
2012,08,13,09,20,18.20
2012,08,13,09,21,18.30
2012,08,13,09,22,18.30
2012,08,13,09,23,18.30
2012,08,13,09,24,18.30
2012,08,13,09,25,18.30
2012,08,13,09,26,18.30
2012,08,13,09,27,18.30
2012,08,13,09,28,18.30
2012,08,13,09,29,18.40
2012,08,13,09,30,18.40
2012,08,13,09,31,18.40
2012,08,13,09,32,18.40
2012,08,13,09,33,18.40
2012,08,13,09,34,18.40
2012,08,13,09,35,18.50
2012,08,13,09,36,18.50
2012,08,13,09,37,18.60
2012,08,13,09,38,18.60
2012,08,13,09,39,18.70
2012,08,13,09,40,18.70
2012,08,13,09,41,18.70
2012,08,13,09,42,18.70
2012,08,13,09,43,18.70
2012,08,13,09,44,18.70
2012,08,13,09,45,18.70
2012,08,13,09,46,18.70
2012,08,13,09,47,18.70
2012,08,13,09,48,18.70
2012,08,13,09,49,18.70
2012,08,13,09,50,18.70
2012,08,13,09,51,18.70
2012,08,13,09,52,18.70
2012,08,13,09,53,18.70
2012,08,13,09,54,18.70
2012,08,13,09,55,18.70
2012,08,13,09,56,18.80
2012,08,13,09,57,18.80
2012,08,13,09,58,18.90
2012,08,13,09,59,18.90
2012,08,13,10,00,18.90
2012,08,13,10,01,18.90
2012,08,13,10,02,18.80
2012,08,13,10,03,18.80
2012,08,13,10,04,18.80
2012,08,13,10,05,18.70
2012,08,13,10,06,18.70
2012,08,13,10,07,18.80
2012,08,13,10,08,18.80
2012,08,13,10,09,18.90
2012,08,13,10,10,18.90
2012,08,13,10,11,18.90
2012,08,13,10,12,18.90
2012,08,13,10,13,19.00
2012,08,13,10,14,19.00
2012,08,13,10,15,19.00
2012,08,13,10,16,19.00
2012,08,13,10,17,19.00
2012,08,13,10,18,18.90
2012,08,13,10,19,18.90
2012,08,13,10,20,18.90
2012,08,13,10,21,18.90
2012,08,13,10,22,18.90
2012,08,13,10,23,18.90
2012,08,13,10,24,18.80
2012,08,13,10,25,18.80
2012,08,13,10,26,18.80
2012,08,13,10,27,18.80
2012,08,13,10,28,18.70
2012,08,13,10,29,18.70
2012,08,13,10,30,18.70
2012,08,13,10,31,18.70
2012,08,13,10,32,18.70
2012,08,13,10,33,18.70
2012,08,13,10,34,18.70
2012,08,13,10,35,18.60
2012,08,13,10,36,18.60
2012,08,13,10,37,18.60
2012,08,13,10,38,18.60
2012,08,13,10,39,18.60
2012,08,13,10,40,18.60
2012,08,13,10,41,18.60
2012,08,13,10,42,18.70
2012,08,13,10,43,18.70
2012,08,13,10,44,18.80
2012,08,13,10,45,18.80
2012,08,13,10,46,18.80
2012,08,13,10,47,18.80
2012,08,13,10,48,18.80
2012,08,13,10,49,18.80
2012,08,13,10,50,18.80
2012,08,13,10,51,18.80
2012,08,13,10,52,18.80
2012,08,13,10,53,18.80
2012,08,13,10,54,18.90
2012,08,13,10,55,18.90
2012,08,13,10,56,18.90
2012,08,13,10,57,18.90
2012,08,13,10,58,18.90
2012,08,13,10,59,18.80
2012,08,13,11,00,18.80
2012,08,13,11,01,18.70
2012,08,13,11,02,18.70
2012,08,13,11,03,18.70
2012,08,13,11,04,18.60
2012,08,13,11,05,18.60
2012,08,13,11,06,18.60
2012,08,13,11,07,18.50
2012,08,13,11,08,18.50
2012,08,13,11,09,18.40
2012,08,13,11,10,18.40
2012,08,13,11,11,18.40
2012,08,13,11,12,18.40
2012,08,13,11,13,18.40
2012,08,13,11,14,18.40
2012,08,13,11,15,18.40
2012,08,13,11,16,18.50
2012,08,13,11,17,18.60
2012,08,13,11,18,18.60
2012,08,13,11,19,18.60
2012,08,13,11,20,18.60
2012,08,13,11,21,18.70
2012,08,13,11,22,18.70
2012,08,13,11,23,18.70
2012,08,13,11,24,18.70
2012,08,13,11,25,18.70
2012,08,13,11,26,18.60
2012,08,13,11,27,18.60
2012,08,13,11,28,18.60
2012,08,13,11,29,18.70
2012,08,13,11,30,18.70
2012,08,13,11,31,18.70
2012,08,13,11,32,18.70
2012,08,13,11,33,18.70
2012,08,13,11,34,18.70
2012,08,13,11,35,18.70
2012,08,13,11,36,18.70
2012,08,13,11,37,18.70
2012,08,13,11,38,18.70
2012,08,13,11,39,18.70
2012,08,13,11,40,18.70
2012,08,13,11,41,18.70
2012,08,13,11,42,18.70
2012,08,13,11,43,18.70
2012,08,13,11,44,18.70
2012,08,13,11,45,18.70
2012,08,13,11,46,18.60
2012,08,13,11,47,18.60
2012,08,13,11,48,18.50
2012,08,13,11,49,18.50
2012,08,13,11,50,18.50
2012,08,13,11,51,18.50
2012,08,13,11,52,18.50
2012,08,13,11,53,18.50
2012,08,13,11,54,18.50
2012,08,13,11,55,18.50
2012,08,13,11,56,18.60
2012,08,13,11,57,18.60
2012,08,13,11,58,18.60
2012,08,13,11,59,18.70
2012,08,13,12,00,18.80
2012,08,13,12,01,18.90
2012,08,13,12,02,19.00
2012,08,13,12,03,19.10
2012,08,13,12,04,19.20
2012,08,13,12,05,19.20
2012,08,13,12,06,19.30
2012,08,13,12,07,19.30
2012,08,13,12,08,19.30
2012,08,13,12,09,19.40
2012,08,13,12,10,19.40
2012,08,13,12,11,19.40
2012,08,13,12,12,19.50
2012,08,13,12,13,19.50
2012,08,13,12,14,19.50
2012,08,13,12,15,19.60
2012,08,13,12,16,19.60
2012,08,13,12,17,19.60
2012,08,13,12,18,19.60
2012,08,13,12,19,19.60
2012,08,13,12,20,19.60
2012,08,13,12,21,19.60
2012,08,13,12,22,19.60
2012,08,13,12,23,19.60
2012,08,13,12,24,19.60
2012,08,13,12,25,19.70
2012,08,13,12,26,19.70
2012,08,13,12,27,19.70
2012,08,13,12,28,19.80
2012,08,13,12,29,19.80
2012,08,13,12,30,19.80
2012,08,13,12,31,19.70
2012,08,13,12,32,19.70
2012,08,13,12,33,19.70
2012,08,13,12,34,19.70
2012,08,13,12,35,19.80
2012,08,13,12,36,19.80
2012,08,13,12,37,19.80
2012,08,13,12,38,19.80
2012,08,13,12,39,19.90
2012,08,13,12,40,19.90
2012,08,13,12,41,19.90
2012,08,13,12,42,19.90
2012,08,13,12,43,19.80
2012,08,13,12,44,19.70
2012,08,13,12,45,19.60
2012,08,13,12,46,19.60
2012,08,13,12,47,19.50
2012,08,13,12,48,19.40
2012,08,13,12,49,19.40
2012,08,13,12,50,19.30
2012,08,13,12,51,19.30
2012,08,13,12,52,19.30
2012,08,13,12,53,19.30
2012,08,13,12,54,19.30
2012,08,13,12,55,19.30
2012,08,13,12,56,19.30
2012,08,13,12,57,19.30
2012,08,13,12,58,19.30
2012,08,13,12,59,19.30
2012,08,13,13,00,19.40
2012,08,13,13,01,19.40
2012,08,13,13,02,19.40
2012,08,13,13,03,19.50
2012,08,13,13,04,19.40
2012,08,13,13,05,19.40
2012,08,13,13,06,19.40
2012,08,13,13,07,19.40
2012,08,13,13,08,19.50
2012,08,13,13,09,19.50
2012,08,13,13,10,19.50
2012,08,13,13,11,19.50
2012,08,13,13,12,19.60
2012,08,13,13,13,19.60
2012,08,13,13,14,19.70
2012,08,13,13,15,19.70
2012,08,13,13,16,19.70
2012,08,13,13,17,19.70
2012,08,13,13,18,19.70
2012,08,13,13,19,19.70
2012,08,13,13,20,19.70
2012,08,13,13,21,19.80
2012,08,13,13,22,19.80
2012,08,13,13,23,19.90
2012,08,13,13,24,20.00
2012,08,13,13,25,20.10
2012,08,13,13,26,20.20
2012,08,13,13,27,20.20
2012,08,13,13,28,20.20
2012,08,13,13,29,20.20
2012,08,13,13,30,20.20
2012,08,13,13,31,20.10
2012,08,13,13,32,20.10
2012,08,13,13,33,20.00
2012,08,13,13,34,20.10
2012,08,13,13,35,20.10
2012,08,13,13,36,20.10
2012,08,13,13,37,20.20
2012,08,13,13,38,20.30
2012,08,13,13,39,20.40
2012,08,13,13,40,20.50
2012,08,13,13,41,20.50
2012,08,13,13,42,20.60
2012,08,13,13,43,20.60
2012,08,13,13,44,20.50
2012,08,13,13,45,20.40
2012,08,13,13,46,20.40
2012,08,13,13,47,20.30
2012,08,13,13,48,20.20
2012,08,13,13,49,20.10
2012,08,13,13,50,20.10
2012,08,13,13,51,20.00
2012,08,13,13,52,20.00
2012,08,13,13,53,20.00
2012,08,13,13,54,19.90
2012,08,13,13,55,19.90
2012,08,13,13,56,19.90
2012,08,13,13,57,20.00
2012,08,13,13,58,20.00
2012,08,13,13,59,20.10
2012,08,13,14,00,20.10
2012,08,13,14,01,20.10
2012,08,13,14,02,20.00
2012,08,13,14,03,20.00
2012,08,13,14,04,20.00
2012,08,13,14,05,20.00
2012,08,13,14,06,20.10
2012,08,13,14,07,20.20
2012,08,13,14,08,20.20
2012,08,13,14,09,20.20
2012,08,13,14,10,20.20
2012,08,13,14,11,20.30
2012,08,13,14,12,20.30
2012,08,13,14,13,20.30
2012,08,13,14,14,20.30
2012,08,13,14,15,20.30
2012,08,13,14,16,20.30
2012,08,13,14,17,20.40
2012,08,13,14,18,20.40
2012,08,13,14,19,20.40
2012,08,13,14,20,20.40
2012,08,13,14,21,20.50
2012,08,13,14,22,20.60
2012,08,13,14,23,20.60
2012,08,13,14,24,20.70
2012,08,13,14,25,20.70
2012,08,13,14,26,20.70
2012,08,13,14,27,20.70
2012,08,13,14,28,20.60
2012,08,13,14,29,20.60
2012,08,13,14,30,20.60
2012,08,13,14,31,20.60
2012,08,13,14,32,20.60
2012,08,13,14,33,20.60
2012,08,13,14,34,20.60
2012,08,13,14,35,20.60
2012,08,13,14,36,20.60
2012,08,13,14,37,20.70
2012,08,13,14,38,20.70
2012,08,13,14,39,20.80
2012,08,13,14,40,20.80
2012,08,13,14,41,20.80
2012,08,13,14,42,20.90
2012,08,13,14,43,20.90
2012,08,13,14,44,20.90
2012,08,13,14,45,20.90
2012,08,13,14,46,20.90
2012,08,13,14,47,21.00
2012,08,13,14,48,21.00
2012,08,13,14,49,21.10
2012,08,13,14,50,21.20
2012,08,13,14,51,21.30
2012,08,13,14,52,21.30
2012,08,13,14,53,21.30
2012,08,13,14,54,21.30
2012,08,13,14,55,21.30
2012,08,13,14,56,21.30
2012,08,13,14,57,21.30
2012,08,13,14,58,21.30
2012,08,13,14,59,21.30
2012,08,13,15,00,21.30
2012,08,13,15,01,21.20
2012,08,13,15,02,21.20
2012,08,13,15,03,21.20
2012,08,13,15,04,21.30
2012,08,13,15,05,21.30
2012,08,13,15,06,21.30
2012,08,13,15,07,21.30
2012,08,13,15,08,21.40
2012,08,13,15,09,21.40
2012,08,13,15,10,21.50
2012,08,13,15,11,21.50
2012,08,13,15,12,21.60
2012,08,13,15,13,21.60
2012,08,13,15,14,21.70
2012,08,13,15,15,21.70
2012,08,13,15,16,21.80
2012,08,13,15,17,21.80
2012,08,13,15,18,21.80
2012,08,13,15,19,21.80
2012,08,13,15,20,21.80
2012,08,13,15,21,21.80
2012,08,13,15,22,21.80
2012,08,13,15,23,21.80
2012,08,13,15,24,21.80
2012,08,13,15,25,21.80
2012,08,13,15,26,21.80
2012,08,13,15,27,21.90
2012,08,13,15,28,22.00
2012,08,13,15,29,22.10
2012,08,13,15,30,22.10
2012,08,13,15,31,22.20
2012,08,13,15,32,22.30
2012,08,13,15,33,22.30
2012,08,13,15,34,22.30
2012,08,13,15,35,22.40
2012,08,13,15,36,22.40
2012,08,13,15,37,22.40
2012,08,13,15,38,22.40
2012,08,13,15,39,22.40
2012,08,13,15,40,22.40
2012,08,13,15,41,22.40
2012,08,13,15,42,22.50
2012,08,13,15,43,22.50
2012,08,13,15,44,22.50
2012,08,13,15,45,22.60
2012,08,13,15,46,22.60
2012,08,13,15,47,22.70
2012,08,13,15,48,22.70
2012,08,13,15,49,22.70
2012,08,13,15,50,22.80
2012,08,13,15,51,22.80
2012,08,13,15,52,22.90
2012,08,13,15,53,23.00
2012,08,13,15,54,23.10
2012,08,13,15,55,23.20
2012,08,13,15,56,23.20
2012,08,13,15,57,23.30
2012,08,13,15,58,23.40
2012,08,13,15,59,23.40
2012,08,13,16,00,23.50
2012,08,13,16,01,23.60
2012,08,13,16,02,23.60
2012,08,13,16,03,23.60
2012,08,13,16,04,23.50
2012,08,13,16,05,23.50
2012,08,13,16,06,23.40
2012,08,13,16,07,23.40
2012,08,13,16,08,23.40
2012,08,13,16,09,23.30
2012,08,13,16,10,23.30
2012,08,13,16,11,23.40
2012,08,13,16,12,23.40
2012,08,13,16,13,23.40
2012,08,13,16,14,23.50
2012,08,13,16,15,23.50
2012,08,13,16,16,23.50
2012,08,13,16,17,23.50
2012,08,13,16,18,23.40
2012,08,13,16,19,23.40
2012,08,13,16,20,23.40
2012,08,13,16,21,23.40
2012,08,13,16,22,23.30
2012,08,13,16,23,23.30
2012,08,13,16,24,23.30
2012,08,13,16,25,23.20
2012,08,13,16,26,23.20
2012,08,13,16,27,23.20
2012,08,13,16,28,23.10
2012,08,13,16,29,23.10
2012,08,13,16,30,23.00
2012,08,13,16,31,22.90
2012,08,13,16,32,22.90
2012,08,13,16,33,22.90
2012,08,13,16,34,22.90
2012,08,13,16,35,22.90
2012,08,13,16,36,22.90
2012,08,13,16,37,22.90
2012,08,13,16,38,22.80
2012,08,13,16,39,22.80
2012,08,13,16,40,22.80
2012,08,13,16,41,22.80
2012,08,13,16,42,22.80
2012,08,13,16,43,22.80
2012,08,13,16,44,22.80
2012,08,13,16,45,22.90
2012,08,13,16,46,22.90
2012,08,13,16,47,22.90
2012,08,13,16,48,22.90
2012,08,13,16,49,23.00
2012,08,13,16,50,23.00
2012,08,13,16,51,23.10
2012,08,13,16,52,23.10
2012,08,13,16,53,23.10
2012,08,13,16,54,23.20
2012,08,13,16,55,23.20
2012,08,13,16,56,23.20
2012,08,13,16,57,23.30
2012,08,13,16,58,23.30
2012,08,13,16,59,23.40
2012,08,13,17,00,23.40
2012,08,13,17,01,23.40
2012,08,13,17,02,23.40
2012,08,13,17,03,23.40
2012,08,13,17,04,23.50
2012,08,13,17,05,23.50
2012,08,13,17,06,23.50
2012,08,13,17,07,23.50
2012,08,13,17,08,23.40
2012,08,13,17,09,23.50
2012,08,13,17,10,23.50
2012,08,13,17,11,23.60
2012,08,13,17,12,23.60
2012,08,13,17,13,23.60
2012,08,13,17,14,23.70
2012,08,13,17,15,23.70
2012,08,13,17,16,23.70
2012,08,13,17,17,23.70
2012,08,13,17,18,23.70
2012,08,13,17,19,23.70